TimeCST,TemperatureF,Dew PointF,Humidity,Sea Level PressureIn,VisibilityMPH,Wind Direction,Wind SpeedMPH,Gust SpeedMPH,PrecipitationIn,Events,Conditions,WindDirDegrees,DateUTC
12:53 AM,48.9,30.0,48,29.92,10.0,ENE,9.2,-,N/A,,Mostly Cloudy,60,2014-02-16 06:53:00
1:53 AM,45.0,30.0,56,29.93,10.0,NE,5.8,-,N/A,,Mostly Cloudy,40,2014-02-16 07:53:00
2:53 AM,44.1,28.9,55,29.93,10.0,NNE,11.5,-,N/A,,Scattered Clouds,20,2014-02-16 08:53:00
3:53 AM,41.0,28.9,62,29.91,10.0,NNE,12.7,-,N/A,,Scattered Clouds,30,2014-02-16 09:53:00
4:53 AM,39.0,28.9,67,29.91,10.0,NNE,11.5,-,N/A,,Scattered Clouds,20,2014-02-16 10:53:00
5:53 AM,37.0,28.9,73,29.93,10.0,NNE,8.1,-,N/A,,Scattered Clouds,20,2014-02-16 11:53:00
6:53 AM,36.0,28.0,73,29.95,10.0,North,9.2,-,N/A,,Scattered Clouds,350,2014-02-16 12:53:00
7:53 AM,36.0,28.9,76,29.95,10.0,North,5.8,-,N/A,,Mostly Cloudy,360,2014-02-16 13:53:00
8:53 AM,39.9,30.0,68,29.99,10.0,NW,6.9,-,N/A,,Mostly Cloudy,320,2014-02-16 14:53:00
9:53 AM,48.9,32.0,52,29.99,10.0,North,9.2,-,N/A,,Scattered Clouds,350,2014-02-16 15:53:00
10:53 AM,54.0,30.9,41,29.96,10.0,Variable,3.5,-,N/A,,Mostly Cloudy,0,2014-02-16 16:53:00
11:53 AM,60.1,32.0,35,29.95,10.0,West,8.1,-,N/A,,Mostly Cloudy,260,2014-02-16 17:53:00
12:53 PM,66.0,30.9,27,29.89,10.0,WSW,8.1,-,N/A,,Scattered Clouds,250,2014-02-16 18:53:00
1:53 PM,73.9,28.9,19,29.83,10.0,WSW,15.0,-,N/A,,Mostly Cloudy,250,2014-02-16 19:53:00
2:53 PM,79.0,23.0,13,29.79,10.0,WSW,16.1,-,N/A,,Scattered Clouds,250,2014-02-16 20:53:00
3:53 PM,82.0,15.1,8,29.77,10.0,West,19.6,26.5,N/A,,Scattered Clouds,270,2014-02-16 21:53:00
4:53 PM,82.9,10.9,7,29.77,10.0,West,21.9,27.6,N/A,,Mostly Cloudy,270,2014-02-16 22:53:00
5:53 PM,77.0,9.0,7,29.79,10.0,WSW,12.7,-,N/A,,Mostly Cloudy,250,2014-02-16 23:53:00
6:53 PM,66.9,10.0,11,29.83,10.0,WSW,9.2,-,N/A,,Mostly Cloudy,240,2014-02-17 00:53:00
7:53 PM,64.9,10.0,12,29.86,10.0,West,10.4,-,N/A,,Mostly Cloudy,260,2014-02-17 01:53:00
8:53 PM,62.1,10.9,13,29.86,10.0,WSW,9.2,-,N/A,,Mostly Cloudy,240,2014-02-17 02:53:00
9:53 PM,57.0,12.9,18,29.86,10.0,West,6.9,-,N/A,,Mostly Cloudy,260,2014-02-17 03:53:00
10:53 PM,54.0,15.1,22,29.86,10.0,West,8.1,-,N/A,,Scattered Clouds,270,2014-02-17 04:53:00
11:53 PM,52.0,16.0,24,29.86,10.0,WSW,8.1,-,N/A,,Partly Cloudy,240,2014-02-17 05:53:00